Hourly Data Report for September 18, 2017

All times are specified in Local Standard Time (LST). Add 1 hour to adjust for Daylight Saving Time where and when it is observed.

CHARLOTTETOWN A
PRINCE EDWARD ISLAND

46°17'21.000" N
63°07'09.000" W
48.50 m
8300301
71706
YYG

Download Data

Hourly Data (September 2017)
Hourly Data Report for September 18, 2017
Temp Definition
°C
Dew Point Temp Definition
°C
Rel Hum Definition
%
Wind Dir Definition
10's deg

Wind Spd Definition
km/h
Visibility Definition
km
Stn Press Definition
kPa
Hmdx Definition


Wind Chill Definition


Weather Definition


TIME
00:00 Legend Double Dagger 14.5 11.8 84 12 7 24.1 101.72     LegendNANA
01:00 Legend Double Dagger 14.4 12.2 86 5 7 24.1 101.72     LegendNANA
02:00 Legend Double Dagger 14.5 12.5 87 5 9 24.1 101.70     Cloudy
03:00 Legend Double Dagger 14.1 12.5 90 5 14 4.8 101.71     Drizzle,Fog
04:00 Legend Double Dagger 13.9 13.0 94 5 13 8.1 101.76     Fog
05:00 Legend Double Dagger 13.8 13.1 95 8 11 4.0 101.77     Drizzle,Fog
06:00 Legend Double Dagger 13.8 13.2 96 7 12 9.7 101.81     Fog
07:00 Legend Double Dagger 13.9 13.3 96 6 9 4.8 101.86     Fog
08:00 Legend Double Dagger 14.1 13.5 96 6 9 3.2 101.91     Fog
09:00 Legend Double Dagger 14.1 13.6 97 7 12 3.2 101.94     Fog
10:00 Legend Double Dagger 14.3 13.8 97 10 12 2.8 101.92     Fog
11:00 Legend Double Dagger 15.1 14.6 97 11 12 6.4 101.90     Fog
12:00 Legend Double Dagger 16.6 15.8 95 17 9 8.1 101.88     Fog
13:00 Legend Double Dagger 18.0 16.2 89 18 5 19.3 101.85     LegendNANA
14:00 Legend Double Dagger 18.8 16.7 88 21 5 19.3 101.87     Cloudy
15:00 Legend Double Dagger 19.2 17.1 87 6 3 24.1 101.86     LegendNANA
16:00 Legend Double Dagger 20.0 17.4 85 13 5 24.1 101.85 26   LegendNANA
17:00 Legend Double Dagger 19.9 17.7 87 13 7 24.1 101.86     Cloudy
18:00 Legend Double Dagger 19.5 17.6 88 13 10 24.1 101.89     LegendNANA
19:00 Legend Double Dagger 18.8 17.6 92 13 9 24.1 101.91     LegendNANA
20:00 Legend Double Dagger 18.9 17.6 92 16 12 24.1 101.94     Cloudy
21:00 Legend Double Dagger 18.6 16.8 90 18 14 24.1 101.95     LegendNANA
22:00 Legend Double Dagger 18.1 16.6 91 19 12 24.1 101.98     LegendNANA
23:00 Legend Double Dagger 16.8 15.9 94 16 9 24.1 101.97     Cloudy

Notes on Data Quality.

Legend

  • E = Estimated
  • M = Missing
  • NA = Not Available
  • ‡ = Partner data that is not subject to review by the National Climate Archives
Date modified: